Orbcomm D6

operational
NORAD ID: 25986 Int'l Des: 1999-065 Owner: ORBC Country: US Constellation: orbcomm
LEOCIRCULAR

About Orbcomm D6

Description loading...

Live Position

Loading 3D Globe...

Upcoming Passes

Altitude History

Altitude vs Time

uPlot chart will show altitude changes over time

Two-Line Element Set

1 25986U 99065G 26020.69218141 .00001843 00000-0 65464-3 0 9995
2 25986 45.0381 146.9085 0002621 341.9031 18.1724 14.37662344366196
Epoch: Jan 20, 2026 • Age: 14 hours

Current Status

Altitude 767.8 km
Velocity 7.47 km/s
Sub-Earth Point 2.67°N, 99.25°E
Launch Date Dec 4, 1999
Age 26.1 years
Type other

Technical Details

Classification Payload
Mass 44.00 kg
Dry Mass 44.00 kg
Total Mass 44.00 kg
Length 0.20 m
Diameter 1.00 m
Span 4.30 m
Shape Cyl + 2 Pan + Ant
Manufacturer OSCG
Bus Type Microstar
Phase Status In Orbit
Owner/State ORBC/US

Large Constellations

Loading constellations...